Location: New Frontier Mobile Home Park
(32.8448°N, 116.9675°W)
Time: 01:38:04
(UTC+00:00)

H-2A R/B - Visible Passes

Search period start: 24 October 2020 00:00
Search period end: 03 November 2020 00:00
Orbit: 734 x 836 km, 98.2° (Epoch: 23 October)

Date Brightness Start Highest point End Pass type
(mag) Time Alt. Az. Time Alt. Az. Time Alt. Az.
24 Oct 3.0 02:05:45 10° SE 02:10:10 27° ENE 02:14:40 10° NNE visible
24 Oct 3.7 03:46:03 17° SSW 03:49:23 31° W 03:54:11 10° NW visible
25 Oct 3.7 01:36:56 10° E 01:39:35 14° ENE 01:42:14 10° NE visible
25 Oct 2.4 03:14:52 22° S 03:18:20 64° W 03:23:44 10° NNW visible
26 Oct 2.0 02:43:42 20° SSE 02:47:25 63° ENE 02:52:47 10° N visible
26 Oct 4.9 04:24:53 10° WSW 04:27:11 13° W 04:29:30 10° WNW visible
27 Oct 2.8 02:12:32 13° SE 02:16:39 32° ENE 02:21:24 10° N visible
27 Oct 4.0 03:53:10 18° SW 03:55:58 27° W 04:00:31 10° NW visible
28 Oct 3.6 01:42:45 10° ESE 01:46:01 16° ENE 01:49:16 10° NNE visible
28 Oct 2.7 03:22:00 26° SSW 03:24:53 55° W 03:30:13 10° NNW visible
29 Oct 2.0 02:50:51 26° SSE 02:53:56 75° ENE 02:59:22 10° N visible
29 Oct 5.1 04:32:46 10° WSW 04:33:48 10° W 04:34:50 10° W visible
30 Oct 2.6 02:19:41 18° SE 02:23:08 37° ENE 02:28:06 10° N visible
30 Oct 4.2 04:00:20 18° SW 04:02:32 23° W 04:06:47 10° NW visible
31 Oct 3.4 01:48:45 10° ESE 01:52:27 19° ENE 01:56:12 10° NNE visible
31 Oct 3.0 03:29:12 30° SSW 03:31:26 46° W 03:36:41 10° NNW visible
01 Nov 2.0 02:58:03 35° SSE 03:00:27 87° ENE 03:05:56 10° NNW visible
02 Nov 2.4 02:26:55 25° SE 02:29:37 43° ENE 02:34:45 10° N visible
02 Nov 4.5 04:07:33 17° WSW 04:09:07 20° W 04:13:00 10° NW visible
